Preview of NWS' New Version of Forecast
This preview is not operational and should not be used for support decisions.

Regional Weather Roundup (RWR)

Issued by Gray - Portland, ME (GYX)

                            
000
ASUS41 KGYX 251405
RWRGYX
WEATHER ROUNDUP FOR MAINE AND NEW HAMPSHIRE
NATIONAL WEATHER SERVICE GRAY ME
1000 AM EDT FRI MAY 25 2018

MEZ002-005-006-010-012-015-018-020-021-024-026-027-029-251500-
MAINE
  
CITY           SKY/WX    TMP DP  RH WIND       PRES   REMARKS
PORTLAND       FAIR      76  50  40 W9G21     29.80F                  
SANFORD        FAIR      75  51  43 W13G22    29.85F                  
BAR HARBOR     FAIR      71  51  49 SW15G21   29.70F                  
WISCASSET      FAIR      77  51  40 W10       29.77F                  
ROCKLAND       FAIR      73  53  49 W15       29.74F                  
FRYEBURG       FAIR      79  48  33 W9        29.80F                  
LEWISTONAUBURN FAIR      78  51  38 W8        29.77F                  
AUGUSTA        FAIR      76  50  40 W12G18    29.74F                  
WATERVILLE     FAIR      76  51  41 SW12G20   29.70F                  
BANGOR         FAIR      75  50  41 W12G25    29.68F                  
GREENVILLE       N/A     75  49  39 MISG      29.66F                  
MILLINOCKET    FAIR      75  51  43 W8        29.64F                  
HOULTON        PTSUNNY   63  51  65 N3        29.66R                  
PRESQUE ISLE   CLOUDY    53  50  89 S9        29.62F                  
FRENCHVILLE    LGT RAIN  51  47  86 S6        29.59F                  
CARIBOU        LGT RAIN  50  48  93 SW3       29.61F                  
$$

NHZ002-005-008-009-011-012-014-251500-
NEW HAMPSHIRE
  
CITY           SKY/WX    TMP DP  RH WIND       PRES   REMARKS
PORTSMOUTH     SUNNY     75  51  41 W14G22    29.84F                  
ROCHESTER      FAIR      76  53  44 VRB5      29.85F                  
NASHUA         FAIR      76  50  40 W13       29.90F                  
MANCHESTER     FAIR      79  48  33 SW9       29.87F                  
CONCORD        FAIR      77  50  38 W15G23    29.87F                  
LACONIA        FAIR      77  51  40 W10G16    29.86F                  
PLYMOUTH       FAIR      74  49  40 W5        29.86F                  
BERLIN         FAIR      74  49  41 MISG      29.80F                  
WHITEFIELD     FAIR      72  50  45 W12G17    29.84F                  
JAFFREY        FAIR      74  50  42 SW8       29.95F                  
KEENE          FAIR      76  51  41 SW9       29.93F                  
LEBANON        FAIR      79  48  33 W16G24    29.86F                  
MT WASHINGTON  PTSUNNY   46  41  81 W66G77      N/A                   
$$

VTZ005-007-008-251500-
VERMONT
  
CITY           SKY/WX    TMP DP  RH WIND       PRES   REMARKS
ST JOHNSBURY     N/A     75  48  38 MISG      29.81F                  
MONTPELIER     FAIR      74  49  41 W14G23    29.90F                  
BURLINGTON     FAIR      76  52  43 S12       29.83F                  
$$

MAZ007-012-024-CTZ003-RIZ002-NYZ038-NYZ072-251500-
SOUTHERN NEW ENGLAND AND NY
  
CITY           SKY/WX    TMP DP  RH WIND       PRES   REMARKS
BOSTON         FAIR      77  49  37 W16G22    29.90F                  
WORCESTER      FAIR      72  50  45 W15G22    29.97F                  
NANTUCKET      FAIR      61  55  81 SW20      29.99F                  
PROVIDENCE     FAIR      76  52  43 W12       29.96F                  
HARTFORD       FAIR      75  56  51 S3        29.97F                  
ALBANY         FAIR      73  53  49 VRB5      29.96F                  
NEW YORK CITY  FAIR      80  50  34 SW9       30.00F                  
$$

ANZ081-ANZ082-ANZ150-NHZ014-MEZ023>029-251500-
COASTAL MARINE OBSERVATIONS
  
STATION/POSITION TIME  TEMP    WIND        PRES    WAVE
                       AIR SEA DIR/SP/G            HT/PER
                 (UTC) (F)     (DEG/KT/KT) (MB)    (FT/S)
MOUNT DESERT ROC 1400   52     220/ 25/ 27 1006.9F
ISLE OF SHOALS   1300   66     240/ 20/ 21 1010.9F
JEFFREYS LEDGE   1336      52                N/A     3/ 5
CASHES LEDGE BUO 1350   59 51              1009.1F   5/ 6
$$

.............KEY..............
   WCI - WIND CHILL
   TC  - TEMPERATURE IN CELSIUS
   VSB - VISIBILITY IN MILES
   HX  - HEAT INDEX
   FAIR- INDICATES FEW OR NO CLOUDS BELOW 12,000 FT, WITH NO 
         SIGNIFICANT WEATHER AND/OR OBSTRUCTIONS TO VISIBILITY.